Location: Melbourne
(37.8170°S, 144.9670°E)
Time: 04:47:13
(UTC+10:00)

ADEOS Rocket - Visible Passes

Search period start: 26 May 2016 00:00
Search period end: 05 June 2016 00:00
Orbit: 859 x 1307 km, 98.7° (Epoch: 25 May)

Date Brightness Start Highest point End Pass type
(mag) Time Alt. Az. Time Alt. Az. Time Alt. Az.
26 May 4.7 04:32:06 10° NNE 04:33:19 17° N 04:33:19 17° N visible
26 May 3.7 17:29:33 10° S 17:36:35 78° WSW 17:44:11 10° NNW visible
26 May 5.8 19:17:43 10° SSW 19:21:07 14° WSW 19:24:38 10° W visible
27 May 4.8 05:30:01 10° NNW 05:30:33 12° NW 05:30:33 12° NW visible
27 May 5.1 18:26:51 10° S 18:32:53 32° WSW 18:39:19 10° NW visible
28 May 4.8 04:39:46 10° N 04:40:50 16° N 04:40:50 16° N visible
28 May 3.9 17:37:15 10° S 17:44:19 69° WSW 17:51:54 10° NNW visible
28 May 5.9 19:26:04 10° SW 19:28:42 12° WSW 19:31:22 10° WSW visible
29 May 5.3 18:34:42 10° S 18:40:33 28° WSW 18:46:43 10° WNW visible
30 May 4.8 04:47:28 10° N 04:48:22 15° N 04:48:22 15° N visible
30 May 4.1 17:45:01 10° S 17:52:04 60° WSW 17:59:35 10° NNW visible
30 May 6.1 19:34:58 10° SW 19:36:15 11° SW 19:37:33 10° WSW visible
31 May 5.4 03:58:35 10° NNE 03:58:40 10° NNE 03:58:40 10° NNE visible
31 May 5.5 18:42:37 10° SSW 18:48:12 25° WSW 18:54:03 10° WNW visible
01 Jun 4.9 04:55:13 10° N 04:55:55 14° N 04:55:55 14° N visible
01 Jun 4.4 17:52:46 10° S 17:59:47 53° WSW 18:07:13 10° NW visible
02 Jun 5.3 04:06:04 10° NNE 04:06:14 11° NNE 04:06:14 11° NNE visible
02 Jun 5.6 18:50:34 10° SSW 18:55:50 22° WSW 19:01:19 10° WNW visible
03 Jun 4.9 05:03:02 10° NNW 05:03:30 12° NNW 05:03:30 12° NNW visible
03 Jun 4.6 18:00:34 10° S 18:07:30 46° WSW 18:14:47 10° NW visible
04 Jun 5.3 04:13:36 10° NNE 04:13:49 11° NNE 04:13:49 11° NNE visible
04 Jun 5.7 18:58:35 10° SSW 19:03:28 19° WSW 19:08:30 10° WNW visible
